Regional Weather Roundup
Issued by NWS

Home | Current Version | Previous Version | Graphics & Text | Print | Product List | Glossary On
Versions: 1 2 3 4 5 6 7 8 9 10 11 12 13 14 15 16 17 18 19 20 21 22 23 24 25 26 27 28 29 30 31 32 33 34 35 36 37 38 39 40 41 42 43 44 45 46 47 48 49 50
000
ASUS43 KLSX 012257
RWRMO

WEATHER SUMMARY FOR MISSOURI
NATIONAL WEATHER SERVICE SPRINGFIELD MO
600 PM CDT TUE SEP 01 2015

NOTE: "FAIR" INDICATES FEW OR NO CLOUDS BELOW 12,000 FEET WITH NO
       SIGNIFICANT WEATHER AND/OR OBSTRUCTIONS TO VISIBILITY.
       CURRENT SKY AND/OR WEATHER CONDITIONS ARE NOT AVAILABLE FOR
       CHILLICOTHE AND FARMINGTON.

MOZ001>031-035>038-043-044-053-054-020000-
...NORTHERN AND WESTERN MISSOURI...

CITY           SKY/WX    TMP DP  RH WIND       PRES   REMARKS
KANSAS CTY INT MOSUNNY   87  67  51 SW12      29.98S HX  90
LEE`S SUMMIT   SUNNY     87  64  46 S10       30.00S
ST JOSEPH      SUNNY     87  69  54 S13       29.96S HX  91
CHILLICOTHE      N/A     89  70  53 S6        29.99S HX  94

$$
MOZ066>068-077>081-088>096-101>105-020000-
...SOUTHWEST MISSOURI...

CITY           SKY/WX    TMP DP  RH WIND       PRES   REMARKS
SPRINGFIELD    SUNNY     87  65  47 SE10      30.04F
JOPLIN         SUNNY     86  65  49 S12       30.02F

$$
MOZ032>034-039>042-045>050-055>058-069>072-020000-
...CENTRAL MISSOURI...

CITY           SKY/WX    TMP DP  RH WIND       PRES   REMARKS
COLUMBIA       NOT AVBL
JEFFERSON CITY MOSUNNY   84  67  56 E9        30.02R
ROLLA          SUNNY     86  68  54 S12       30.05S
SEDALIA        PTSUNNY   88  67  49 S12       30.03S HX  91

$$
MOZ051-052-059>065-020000-
...EAST CENTRAL MISSOURI...

CITY           SKY/WX    TMP DP  RH WIND       PRES   REMARKS
ST LOUIS INTL  MOSUNNY   89  68  49 S8        30.04S HX  93

$$
MOZ072>076-082>087-097>100-106>115-020000-
...SOUTH CENTRAL AND SOUTHEAST MISSOURI...

CITY           SKY/WX    TMP DP  RH WIND       PRES   REMARKS
CAPE GIRARDEAU PTSUNNY   86  71  60 SW5       30.05S HX  91
POPLAR BLUFF   PTSUNNY   86  71  60 S5        30.04F HX  91
WEST PLAINS    MOSUNNY   83  69  62 S7        30.10R

$$



USA.gov is the U.S. government's official web portal to all federal, state and local government web resources and services.